Lapse_Rate
5.8 5.8 5.9 6.0 5.8 5.8 5.8 5.9 5.8 5.8 5.8 5.9 5.8 5.8 5.7 5.8 5.9 6.0 5.9 5.8 5.8 5.6 5.8 6.1 6.1 6.1 6.1 6.1 6.2 6.2 6.2 6.1 6.1 6.1 6.0 6.0 6.0 6.0 6.1 6.2 6.2 6.2 6.3
5.9 6.0 6.0 6.0 5.8 5.7 5.8 5.8 5.8 5.7 5.7 5.7 5.8 5.8 5.8 5.8 5.8 5.8 5.8 6.0 5.7 5.3 5.3 5.5 5.8 5.9 6.0 6.0 6.0 6.2 6.2 6.1 6.0 6.0 6.0 6.0 6.1 6.0 6.0 6.1 6.2 6.2 6.3
5.9 5.8 6.1 6.0 5.7 5.7 5.7 5.8 5.8 5.7 5.7 5.8 5.8 5.9 5.9 5.9 5.7 5.8 5.7 5.9 5.7 5.4 5.1 5.1 5.2 5.6 5.7 5.9 5.9 6.1 6.1 6.0 6.0 5.9 5.8 5.9 6.0 6.0 6.0 6.0 6.0 6.2 6.2
5.8 5.6 6.0 6.1 5.8 5.7 5.7 5.7 5.8 5.7 5.8 5.9 5.9 5.8 6.0 6.0 5.9 5.9 5.8 5.8 5.6 5.4 5.2 5.1 5.2 5.5 5.7 5.8 5.9 5.9 6.0 6.0 5.8 5.7 6.0 5.9 5.9 6.0 5.9 6.0 6.0 6.1 6.2
5.8 5.7 5.7 5.9 5.9 5.8 5.8 5.9 5.9 5.9 5.8 6.0 5.9 5.8 6.0 6.1 6.1 6.0 5.9 5.8 5.7 5.4 5.4 5.2 5.4 5.5 5.6 5.6 5.8 5.9 5.9 5.9 5.8 5.6 5.1 5.3 5.7 5.9 5.9 5.9 6.0 6.1 6.1
5.9 5.8 5.8 6.0 5.9 5.9 5.8 6.0 5.9 5.9 5.8 5.8 5.9 5.9 6.0 6.0 5.9 5.9 5.9 5.9 5.8 5.6 5.6 5.5 5.5 5.6 5.5 5.4 5.5 5.6 5.7 5.8 5.7 5.2 5.7 5.5 5.9 5.8 5.8 5.8 5.9 6.0 6.1
5.8 5.9 5.9 5.9 5.9 5.9 5.8 5.7 5.7 5.8 5.8 5.9 5.9 5.9 5.8 5.8 5.7 5.7 5.8 5.8 5.8 5.7 5.6 5.5 5.4 5.5 5.4 5.5 5.5 5.5 5.5 5.6 5.8 5.4 5.7 5.5 5.6 5.8 5.7 5.7 5.7 5.9 5.9
5.9 5.9 6.0 6.0 5.9 5.9 5.8 5.8 5.7 5.7 5.7 5.8 5.8 5.7 5.6 5.5 5.4 5.6 5.6 5.7 5.7 5.7 5.7 5.6 5.3 5.4 5.3 5.3 5.3 5.3 5.2 5.2 5.6 5.2 5.6 5.6 5.5 5.7 5.7 5.5 5.4 5.7 5.9
6.0 6.1 6.1 6.1 5.9 5.8 5.7 5.7 5.7 5.8 5.6 5.7 5.6 5.2 4.9 5.1 5.1 5.3 5.5 5.5 5.5 5.7 5.6 5.6 5.6 5.2 5.3 5.3 5.1 5.3 5.2 5.2 5.2 5.2 5.3 5.4 5.6 5.3 5.5 5.7 5.9 5.7 5.9
4.8 6.1 6.1 6.1 6.1 5.9 5.8 5.7 5.8 5.7 5.7 5.6 5.3 5.0 4.8 5.2 4.9 5.0 5.3 5.6 5.4 5.4 5.4 5.6 5.6 5.4 5.2 5.1 5.1 5.2 5.2 5.2 5.4 4.5 5.5 5.4 5.5 5.4 5.5 5.8 5.8 5.9 5.9
5.8 6.4 6.1 6.1 6.1 6.0 5.8 5.8 5.7 5.6 5.5 5.5 5.4 4.9 4.9 5.0 5.3 5.5 5.3 5.5 5.4 5.4 5.3 5.5 5.6 5.4 5.3 5.2 5.2 5.1 5.1 5.3 5.3 5.6 5.6 5.6 5.3 5.2 5.3 5.7 5.6 5.8 5.9
6.0 6.4 6.3 6.2 6.1 5.9 5.8 5.9 5.7 5.5 5.3 5.4 5.2 4.9 4.9 5.0 5.2 5.3 5.2 5.2 5.4 5.3 5.1 5.3 5.4 5.4 5.5 5.4 5.6 5.2 5.0 5.2 5.5 5.3 5.6 5.4 5.3 5.4 5.4 5.6 5.9 6.0 5.9
5.5 5.9 6.1 5.6 6.1 6.0 5.9 5.9 5.9 5.7 5.5 5.5 5.4 5.1 5.2 5.1 5.3 5.5 5.7 5.7 5.4 5.4 5.3 5.4 5.4 5.4 5.3 5.3 5.2 5.2 5.1 5.2 5.3 5.5 5.5 5.3 5.4 5.1 5.4 5.8 6.0 6.3 5.9
5.8 6.1 6.1 5.8 5.9 5.7 5.0 5.9 5.7 5.8 5.6 5.6 5.6 5.5 5.5 5.2 5.1 5.2 5.4 5.6 5.5 5.6 5.5 5.5 5.1 5.2 5.4 5.6 5.1 5.3 5.4 5.3 5.1 5.1 5.3 5.2 5.1 5.2 5.7 6.0 6.2 6.1 6.1
5.2 5.8 5.3 5.7 5.9 5.9 5.8 5.5 4.8 6.0 5.9 5.8 5.7 5.6 5.7 5.6 5.5 5.5 5.5 5.5 5.6 5.7 5.6 5.3 5.4 5.2 5.4 5.5 5.3 5.3 5.4 5.3 5.1 5.1 5.3 5.2 5.2 5.5 5.6 5.8 5.9 6.0 6.0
4.7 5.5 5.4 5.6 5.8 5.7 6.1 6.0 5.7 5.8 5.7 6.0 5.8 5.6 5.6 5.5 5.5 5.6 5.6 5.7 5.7 5.5 5.4 5.3 5.4 5.3 5.3 5.4 5.3 5.5 5.3 5.4 5.3 5.3 5.3 5.0 5.0 5.1 5.0 5.8 5.7 5.8 6.1
5.2 5.6 5.7 5.6 5.7 5.7 5.8 5.8 5.9 5.8 5.8 5.7 5.7 5.9 5.4 5.5 5.5 5.5 5.7 5.7 5.8 5.6 5.4 5.2 5.3 5.3 5.4 5.4 5.6 5.6 5.4 5.4 5.5 5.4 5.3 5.1 4.8 5.2 5.2 5.6 5.7 6.0 6.1
5.9 5.7 5.4 5.5 5.4 5.4 5.8 5.5 5.6 5.7 5.9 6.0 5.8 5.8 5.7 5.7 5.6 5.5 5.7 5.6 5.6 5.6 5.6 5.2 5.2 5.4 5.6 5.5 5.5 5.7 5.6 5.5 5.6 5.7 5.5 5.3 5.2 5.2 5.5 5.8 5.9 6.0 6.1
5.7 5.6 5.1 5.2 5.1 5.5 5.5 5.4 5.7 5.5 5.5 6.1 5.8 5.7 5.5 5.5 5.6 5.5 5.5 5.5 5.7 5.5 5.6 5.3 5.4 5.4 5.3 5.4 5.4 5.5 5.6 5.6 5.7 5.7 5.7 5.6 5.6 5.7 5.7 5.9 6.0 6.0 6.2
5.7 5.4 5.0 5.0 5.0 5.6 5.0 5.2 5.6 5.7 5.5 5.6 5.7 5.7 5.5 5.6 5.7 5.7 5.6 5.7 5.8 5.7 5.5 5.5 5.4 5.4 5.3 5.4 5.6 5.3 5.4 5.7 5.6 5.8 5.8 5.8 5.8 5.8 5.8 5.9 6.1 6.3 6.3
5.6 5.4 4.8 5.2 5.3 5.3 5.1 4.8 5.3 5.5 5.2 5.5 5.6 5.5 5.6 5.6 5.7 5.7 5.6 5.6 5.6 5.6 5.5 5.5 5.4 5.3 5.4 5.4 5.5 5.4 5.6 5.7 5.8 5.9 6.0 5.8 5.8 5.8 5.9 6.1 6.0 6.0 6.3
5.9 5.3 5.1 5.4 5.4 5.2 5.1 5.0 5.0 5.2 5.4 5.8 6.0 5.7 5.7 5.7 5.7 5.7 5.5 5.5 5.5 5.5 5.5 5.4 5.4 5.4 5.5 5.3 5.6 5.5 5.5 5.7 5.5 5.8 6.0 5.8 5.8 5.9 5.9 6.0 6.0 6.0 6.2
5.9 5.5 5.2 5.1 5.0 5.1 4.9 4.6 4.6 5.2 5.6 5.7 5.7 5.6 5.8 5.8 5.6 5.6 5.4 5.4 5.4 5.5 5.5 5.5 5.4 5.5 5.4 5.2 5.6 5.3 5.5 5.7 5.6 5.7 5.8 5.9 6.0 6.0 6.0 6.3 6.0 5.9 6.0
5.7 5.7 5.6 5.1 5.0 5.0 5.1 5.1 5.1 5.5 5.6 5.6 5.7 5.8 5.8 5.6 5.3 5.4 5.3 5.4 5.2 5.2 5.5 5.5 5.4 5.5 5.5 5.4 5.5 5.6 5.6 5.6 5.8 5.7 5.9 5.9 6.1 5.8 6.0 5.9 5.9 5.9 6.0
6.0 5.8 5.7 5.4 5.4 5.4 5.5 5.3 5.5 5.5 5.4 5.6 5.6 5.8 5.7 5.5 5.5 5.5 5.3 5.1 5.1 5.3 5.3 5.5 5.6 5.7 5.7 5.7 5.5 5.6 5.8 5.7 5.7 5.8 5.7 5.6 5.7 5.9 5.9 5.8 6.3 5.9 5.9
6.2 5.9 5.9 5.7 5.9 5.7 5.6 5.7 5.6 5.5 5.7 5.8 5.8 5.7 5.5 5.6 5.4 5.4 5.4 5.3 5.3 5.4 5.6 5.6 5.6 5.7 5.7 5.8 5.7 5.7 5.8 5.8 5.9 5.7 5.7 5.5 5.5 5.7 5.7 5.9 5.9 5.9 6.3
Wind_Speed
15 18 13 13 14 16 19 20 19 18 17 16 15 14 14 12 12 10 9 9 8 9 9 10 10 11 11 12 12 14 15 15 16 16 17 16 14 13 11 14 19 18 16
20 20 13 13 15 18 21 21 20 19 17 15 14 14 13 10 10 8 8 9 9 7 9 9 10 12 12 14 14 15 14 15 14 16 17 16 14 13 14 20 19 17 17
20 20 17 15 16 19 21 21 21 19 17 14 13 14 12 10 8 8 8 9 9 9 9 9 10 12 12 13 14 13 12 12 12 15 16 17 15 13 16 18 17 17 17
20 20 19 16 17 19 21 21 21 19 17 14 13 12 11 9 8 7 8 8 7 9 10 9 8 10 11 12 13 13 11 7 7 9 11 10 18 13 15 15 14 14 15
17 21 20 17 18 19 20 20 20 18 16 14 12 11 9 8 7 6 7 5 7 9 8 6 7 7 10 11 10 10 8 3 6 7 11 8 17 13 12 13 13 12 14
15 19 19 17 18 18 18 19 19 18 16 14 11 8 8 8 8 7 7 5 6 5 6 6 5 7 10 10 9 8 5 3 6 6 12 12 17 14 10 12 13 13 13
15 18 19 16 17 17 18 18 18 16 15 13 13 11 11 9 8 6 5 5 4 4 5 6 6 6 7 7 6 5 4 4 11 14 15 13 16 13 13 11 13 12 10
15 18 20 17 17 17 17 17 16 16 14 14 14 13 11 10 8 5 4 3 3 3 2 2 4 4 5 5 5 5 3 6 9 12 12 14 15 12 13 12 12 12 11
19 17 18 18 16 15 15 15 16 16 14 14 14 14 15 11 9 7 4 2 1 1 1 1 1 1 1 2 4 3 2 2 7 3 15 15 10 11 12 12 11 12 11
17 17 15 18 18 16 15 13 12 14 15 16 16 16 14 18 10 7 5 2 2 3 1 0 1 2 3 3 3 4 1 3 5 4 15 15 13 10 11 11 11 12 11
14 16 16 16 17 16 16 14 12 11 12 13 13 13 8 6 10 10 3 3 3 4 4 3 4 5 5 7 8 6 6 9 6 1 6 23 17 11 10 11 11 10 10
17 16 15 15 14 17 17 17 14 12 14 13 13 10 8 6 5 7 5 8 7 7 8 10 9 10 10 12 13 11 9 7 3 7 14 18 15 12 12 11 11 10 10
16 14 16 14 18 16 9 17 13 15 4 13 10 8 9 5 7 12 7 6 11 14 11 13 13 13 9 12 15 13 9 9 6 8 15 14 13 10 10 11 10 10 9
17 16 19 15 13 16 17 14 14 10 14 13 12 13 9 9 7 8 7 5 7 7 7 9 9 4 6 10 6 10 13 10 8 8 19 18 14 12 13 12 11 10 9
18 17 16 16 12 9 7 9 8 10 9 14 9 11 12 8 2 6 4 8 6 11 11 7 6 2 4 5 9 4 5 8 11 7 14 20 16 13 14 13 12 10 10
17 17 15 15 13 12 10 7 7 1 12 10 9 9 10 11 5 4 5 6 9 12 12 6 3 1 0 3 7 6 9 3 9 10 13 17 18 14 15 13 9 9 9
7 13 11 8 16 14 10 8 9 10 11 9 4 5 6 13 7 8 5 6 8 9 7 6 7 7 4 6 9 7 12 11 13 12 13 13 19 17 14 13 12 11 10
11 9 6 11 15 15 9 3 9 9 8 7 8 6 12 15 13 9 6 7 10 7 9 5 3 4 4 4 6 7 6 11 12 15 16 13 15 20 19 16 15 14 12
16 15 10 9 8 11 6 4 9 10 10 12 10 11 13 15 15 12 7 9 10 3 3 5 4 5 2 5 6 6 8 6 8 11 11 14 14 14 17 24 18 17 16
16 17 14 6 7 7 4 4 7 10 4 10 10 10 13 13 16 12 9 8 10 5 5 3 5 4 4 7 6 5 2 4 6 6 8 12 15 16 16 13 21 19 18
17 18 19 13 10 7 5 5 8 8 10 6 3 10 11 13 15 11 7 6 8 6 6 6 4 5 5 7 4 4 2 3 6 8 9 8 8 12 16 16 16 17 21
16 17 17 16 14 12 10 9 9 6 9 6 7 9 10 11 15 11 7 7 8 4 7 5 6 5 3 4 2 4 1 1 2 4 6 7 10 11 9 14 17 15 12
16 18 16 15 18 17 17 11 9 8 5 3 3 5 8 12 13 10 11 7 7 5 6 7 7 6 4 2 5 2 2 2 4 3 4 7 6 8 8 12 17 17 17
12 13 14 16 15 14 15 14 15 8 8 4 4 5 1 6 8 8 11 7 8 5 3 7 7 7 6 3 2 4 4 2 2 4 4 2 7 8 6 6 8 12 19
10 12 14 16 16 17 18 14 10 10 6 3 3 4 7 6 8 11 13 9 8 7 7 5 7 7 5 3 5 1 3 2 6 2 3 6 5 7 8 8 8 14 14
12 11 14 14 16 17 15 15 13 11 6 4 6 7 9 7 7 10 9 8 7 8 7 8 5 7 8 5 3 3 2 2 4 1 1 6 9 5 8 9 8 8 18
Wind_Direction
139 130 130 134 141 148 148 141 133 133 134 129 127 126 124 124 119 115 106 101 96 91 100 98 101 99 99 101 105 106 98 99 104 104 103 103 104 103 111 118 114 98 99
128 134 125 129 140 147 145 139 135 137 138 135 133 129 130 128 113 111 106 102 103 99 90 98 98 101 103 99 96 101 107 112 116 120 113 105 97 86 86 82 86 101 104
131 130 129 124 129 133 136 136 138 141 142 140 137 133 134 119 113 104 104 103 105 111 103 90 98 98 97 100 103 102 106 118 141 139 139 117 104 91 92 94 105 108 109
132 145 132 123 125 131 133 135 137 143 144 142 140 135 132 126 115 104 105 109 116 116 98 77 87 95 97 95 95 99 105 129 157 147 157 97 103 103 99 104 105 106 107
140 136 123 126 125 128 132 135 139 141 142 143 143 141 137 120 120 115 118 108 89 111 98 96 91 90 98 94 97 102 106 167 219 174 124 87 108 113 112 118 119 120 111
131 126 132 131 128 130 132 136 138 141 145 144 140 135 122 114 131 131 126 112 101 106 107 122 108 98 106 101 99 98 117 223 263 173 75 88 97 121 127 102 102 103 111
140 134 143 139 138 138 139 138 140 143 143 140 131 127 120 121 127 129 127 122 106 85 97 120 133 108 110 117 110 108 139 266 297 65 123 85 106 125 121 119 110 109 113
148 150 138 142 143 144 144 143 145 146 148 144 142 134 126 112 103 104 111 116 95 97 90 107 119 107 112 132 117 107 171 256 340 97 54 108 121 134 126 130 124 120 118
159 142 148 154 148 148 144 148 156 156 157 154 149 145 135 125 127 127 134 124 130 156 119 81 64 98 168 152 139 99 111 265 183 316 146 120 132 141 135 137 135 127 129
146 137 161 160 157 161 157 158 158 152 156 160 159 157 162 138 147 141 151 114 288 261 240 285 293 245 230 215 186 176 150 213 228 148 101 138 142 151 145 146 140 142 136
157 148 163 164 162 170 166 162 166 169 172 169 167 168 166 181 202 163 127 199 225 239 241 268 263 256 240 219 205 190 204 235 124 202 18 132 139 149 158 152 149 150 151
163 174 161 167 167 174 176 155 183 175 179 200 180 204 222 243 240 249 278 194 218 230 252 251 242 234 231 247 188 187 196 249 203 195 124 147 147 163 169 158 154 153 153
171 181 159 180 169 181 179 163 198 180 181 214 193 179 253 264 192 218 246 244 236 206 244 218 235 229 233 291 167 202 221 195 213 161 140 147 147 165 167 161 157 158 160
176 185 166 189 185 178 173 174 193 162 178 227 206 205 231 215 221 216 230 236 279 293 294 252 246 293 345 289 205 186 185 178 230 219 145 154 164 166 162 164 158 159 176
180 183 185 184 177 211 202 189 215 150 186 235 212 214 219 248 222 214 226 216 224 241 252 246 82 56 273 324 299 0 272 155 187 175 143 160 173 171 161 157 156 166 178
182 181 192 184 179 216 199 235 231 148 205 102 195 225 242 274 225 221 255 259 257 250 215 228 137 235 271 206 251 237 246 123 198 229 183 170 177 169 184 187 175 171 183
161 172 185 191 184 197 208 203 236 187 213 240 310 63 204 239 276 267 232 253 226 237 266 231 162 122 206 223 254 231 201 194 189 218 235 188 191 200 203 200 200 196 194
169 160 178 193 201 185 192 195 229 218 219 219 195 164 259 260 257 246 249 248 238 234 206 224 187 155 208 238 247 242 187 195 204 195 214 195 187 198 204 212 203 200 202
188 188 192 199 233 146 149 220 246 230 222 173 185 218 220 248 249 245 230 253 233 237 282 207 210 184 160 251 234 233 184 187 183 181 202 209 180 212 197 192 202 201 206
186 191 179 159 98 76 57 320 269 252 255 240 195 210 225 235 248 241 241 244 261 189 224 253 228 199 178 223 239 133 252 179 157 172 186 203 179 203 200 207 198 209 208
189 188 187 159 142 115 203 240 239 226 243 219 161 193 210 219 244 239 255 244 234 180 224 246 216 252 263 230 129 338 217 200 169 173 167 184 219 191 210 170 200 210 199
191 203 195 173 166 179 205 218 234 252 254 222 232 234 218 214 227 234 236 235 230 271 209 199 211 234 276 273 155 186 137 197 147 270 152 170 193 207 200 221 201 221 213
187 203 208 181 178 190 203 211 230 243 249 267 263 238 217 225 224 229 234 231 208 245 211 196 216 218 235 274 17 106 193 211 133 240 225 178 163 199 190 205 205 203 211
195 177 176 181 183 191 190 208 211 213 209 197 203 229 186 222 223 222 241 217 211 232 221 198 217 237 222 216 274 188 239 328 188 138 202 278 164 190 195 223 217 212 198
186 176 177 185 186 187 189 202 211 214 227 189 177 210 214 212 218 219 220 197 213 222 258 221 194 214 215 223 220 215 230 329 286 129 168 186 254 197 198 199 185 201 218
175 162 162 176 178 180 187 207 212 219 199 193 192 210 221 191 233 210 221 200 213 208 221 207 237 205 241 237 97 237 205 201 229 194 277 173 199 180 190 198 190 193 195